Lid_Strength_Index
3 3 3 3 3 3 3 3 3 3 3 3 3 3 3 2 3 7 8 4 4 3 4 8 9 9 9 10 9 11 15 18 17 16 15 12 13 11 10 11 10 9 10 8 7
4 3 3 3 4 4 4 3 3 3 3 3 3 3 3 3 7 9 4 2 3 2 7 9 10 9 11 10 10 12 16 16 13 12 13 12 12 12 12 12 12 11 8 8 8
4 4 4 4 4 4 4 4 4 3 3 3 3 3 3 4 11 9 2 2 3 3 6 6 7 8 10 9 10 11 14 12 11 10 10 11 12 10 12 14 12 12 9 9 8
4 4 4 4 4 4 4 4 4 3 3 3 3 3 3 7 18 8 2 2 1 4 6 7 9 11 12 13 10 13 11 11 10 10 11 12 10 11 11 11 10 10 10 9 9
4 4 4 4 4 4 4 4 3 3 3 3 3 3 8 14 13 6 3 3 5 6 8 9 10 11 13 12 11 13 11 10 10 11 11 10 12 12 11 10 9 9 10 10 9
4 4 4 4 4 4 4 3 3 4 3 3 4 4 11 16 8 6 6 6 7 7 8 9 10 10 12 12 13 12 12 12 11 11 11 12 12 12 11 10 10 10 9 9 9
4 4 5 5 4 4 4 4 4 4 3 4 3 6 12 14 7 6 6 7 7 8 9 8 8 10 11 13 10 11 14 13 12 12 13 11 14 14 11 10 11 10 10 9 8
4 5 5 5 5 4 4 5 5 4 4 3 3 9 15 8 7 7 7 8 7 7 8 8 8 9 11 10 12 14 14 17 14 12 12 13 17 12 10 10 10 10 11 10 9
5 5 5 5 5 5 5 5 6 5 5 3 9 11 16 8 10 8 8 9 9 8 8 7 8 11 11 14 16 15 19 18 16 12 12 13 15 11 9 10 10 10 9 9 8
5 5 5 5 5 5 5 6 7 8 9 7 10 15 13 14 10 8 8 8 10 10 11 11 11 13 14 15 21 19 18 17 17 14 13 13 13 10 9 9 9 9 9 8 9
5 5 5 5 5 6 9 13 14 15 13 15 15 15 13 10 9 10 9 10 10 13 16 13 15 17 16 14 14 16 17 17 15 12 13 14 13 11 10 9 9 9 9 8 9
5 5 5 5 6 7 11 13 14 13 16 13 13 12 11 10 13 11 9 13 14 16 16 16 18 15 13 14 15 16 17 17 14 12 13 14 14 11 11 10 9 9 8 8 8
6 5 5 5 6 10 12 12 9 11 16 15 13 13 12 13 15 13 11 13 15 17 17 18 16 14 15 15 16 16 17 16 16 14 12 14 15 13 11 10 10 9 8 7 7
6 5 5 6 11 12 13 11 10 11 21 17 16 15 13 13 15 11 11 13 15 17 17 17 14 15 15 16 15 20 13 14 15 16 19 13 20 15 13 13 13 12 10 9 8
6 6 6 7 13 14 12 11 11 14 26 17 16 12 13 14 14 13 11 14 17 16 18 18 16 16 18 16 15 19 15 16 16 17 16 15 18 16 14 16 15 14 12 10 9
6 6 6 10 13 13 12 12 14 21 27 19 16 16 16 15 14 14 14 13 14 16 15 17 14 15 16 14 14 14 17 16 16 16 21 16 17 19 18 17 16 15 14 12 10
6 6 9 10 13 12 12 15 21 25 18 20 19 17 17 17 16 16 18 18 19 24 21 19 17 15 14 18 14 17 20 27 25 23 21 15 16 19 17 16 16 16 15 12 10
6 8 9 11 12 13 16 18 25 28 27 18 18 18 20 18 18 18 19 21 17 18 22 26 26 18 16 18 19 19 20 23 28 24 21 16 19 17 16 15 15 15 10 10 10
8 13 13 12 12 15 17 24 25 25 19 19 19 23 23 19 20 20 21 21 18 16 23 25 26 16 16 14 17 21 22 19 22 19 21 18 18 15 17 18 18 18 10 10 8
14 15 15 13 14 16 19 22 25 19 17 19 24 22 26 24 22 22 21 19 18 16 16 21 26 18 17 16 16 19 18 24 21 26 26 20 23 24 22 21 21 19 9 7 6
15 17 14 14 16 18 22 27 22 18 17 20 24 24 24 23 22 23 20 17 17 17 17 18 23 22 18 20 21 21 22 21 21 21 25 25 25 19 21 21 22 17 10 9 8
17 20 14 15 19 31 25 25 17 18 16 17 18 20 24 23 25 22 20 19 16 16 19 17 23 27 26 19 16 18 22 22 29 27 24 22 23 18 19 20 19 17 11 9 9
20 19 15 15 23 27 25 20 18 18 18 17 18 18 22 25 27 23 20 17 16 17 18 19 21 28 25 20 17 20 20 21 22 22 25 26 24 17 19 20 20 19 14 12 11
18 20 18 19 20 21 23 23 23 17 17 16 17 17 23 26 21 24 20 17 16 16 14 17 22 22 24 22 20 21 21 21 23 29 25 25 23 21 21 22 22 20 17 14 15
19 22 23 22 21 19 20 20 21 22 17 16 18 21 22 27 27 27 20 18 17 15 17 19 26 26 23 22 19 20 21 22 25 25 26 24 24 23 23 23 22 21 19 18 17
18 19 22 24 20 19 18 20 19 19 18 20 23 22 22 24 22 25 20 19 20 18 18 19 25 26 26 25 22 21 20 21 22 24 23 23 24 20 21 22 23 24 23 22 21
17 17 17 20 20 21 20 19 19 18 18 17 18 20 23 21 19 18 18 17 18 19 19 20 22 24 26 22 22 23 21 22 22 23 25 28 24 21 23 24 25 25 23 25 24